Вернуться в каталог

CZ-4 DEB

АктивенSSO
NORAD 20902·DEBRIS·🇨🇳 China

Запущен Sep 3, 1990 с Taiyuan Satellite Launch Center

Loading…

Ближайшие Пролёты (ближайшие 24 часа)

TLE

СвежийSource: Space-Track

Эпоха: Sep 13, 2026, 22:42 UTC

1 20902U 90081BN  26256.94612917  .00000227  00000-0  17585-3 0  9991
2 20902  99.3724  53.7154 0078449 294.9140 230.1604 14.01854446827331

Отслеживайте CZ-4 DEB в реальном времени с AllMySat

Download on the App Store